{"data":{"norad_id":37264,"epoch":"2026-09-20T03:05:36.425184Z","epoch_age_seconds":50193,"freshness":"FRESH","line1":"1 37264U 10070A   26263.12889381 -.00000220  00000+0  00000+0 0  9992","line2":"2 37264   0.0281 125.2986 0005647  43.3009 206.8396  1.00273309 54131","mean_motion":1.00273309,"eccentricity":0.0005647,"inclination_deg":0.0281,"raan_deg":125.2986,"arg_perigee_deg":43.3009,"mean_anomaly_deg":206.8396,"bstar":0,"rev_number":5413,"period_min":1436.0750775663,"perigee_km":35762.357551196,"apogee_km":35809.977916962,"semimajor_km":42164.304734079,"source":"CELESTRAK","updated_at":"2026-09-20T09:00:35.167056Z"}}